Kuiper-00048

operational
NORAD ID: 64508 Int'l Des: 2025-134 Owner: KUIP Country: US Constellation: kuiper
LEOCIRCULAR

Kuiper-00048について

説明を読み込み中...

リアルタイム位置

3D地球を読み込み中...

次回通過

高度履歴

Altitude vs Time

uPlot chart will show altitude changes over time

軌道要素

1 64508U 25134J 25340.79547677 .00004558 00000-0 62662-3 0 9991
2 64508 51.9008 266.3632 0003536 104.2510 255.8846 14.79928308 26564
Epoch: Dec 6, 2025 • Age: 12 hours

現在のステータス

高度 632.2 km
速度 7.55 km/s
衛星直下点 47.35°N, 154.02°W
打ち上げ日 Jun 23, 2025
運用期間 0.4 years
タイプ internet

技術仕様

分類 Payload
質量 490.00 kg
乾燥質量 490.00 kg
総質量 490.00 kg
長さ 1.80 m
直径 0.70 m
スパン 5.00 m
形状 Box + 2 pan
製造者 KUIP
バスタイプ Kuiper
フェーズステータス In Orbit
所有者/国 KUIP/US

大規模コンステレーション

Loading constellations...